Wind_Speed
26 27 28 28 28 29 29 29 30 29 28 27 28 28 31 29 25 26 29 24 22 20 19 19 19 19 19 19 17 12 16 19 23 21 22 21 15 20 14 18 18 11 17 22 22
29 30 30 31 32 33 34 34 35 35 32 31 30 31 32 31 27 25 24 21 18 16 16 16 16 16 16 16 15 19 18 23 19 20 23 25 21 17 17 17 19 17 16 22 20
34 34 35 35 36 37 37 37 36 36 35 32 30 32 31 31 30 26 16 16 20 21 21 22 20 19 18 14 16 20 29 21 23 24 24 24 26 25 26 26 22 23 23 22 24
35 35 35 36 37 38 38 37 38 37 36 35 31 32 32 31 16 25 26 25 24 21 20 20 19 19 19 16 18 26 28 28 27 26 26 28 27 28 27 28 24 26 28 27 30
37 36 36 36 35 36 37 37 37 37 37 37 35 37 34 33 30 33 26 24 23 20 19 18 14 13 19 16 18 24 26 29 30 28 31 28 30 33 31 29 28 27 29 32 31
36 35 35 37 36 36 37 37 39 40 39 37 38 38 41 41 27 30 29 31 24 26 21 18 15 14 24 24 25 26 29 29 25 27 29 29 31 27 29 27 27 26 28 30 29
34 34 33 34 35 35 37 36 37 39 40 37 39 41 44 42 31 32 35 29 28 27 25 23 23 24 24 20 17 19 26 29 31 32 34 29 39 35 28 20 27 28 27 22 24
32 32 32 34 34 36 36 36 37 39 40 38 40 40 49 43 42 34 30 34 29 29 29 26 27 29 28 27 31 30 30 35 28 25 28 27 46 24 20 15 18 20 23 23 22
32 33 33 33 36 35 34 35 36 38 39 38 39 38 45 37 31 30 27 20 15 17 19 21 21 24 21 21 27 22 34 31 38 26 27 27 32 20 11 16 16 15 15 15 16
32 31 32 32 34 35 33 33 35 37 38 40 37 37 24 22 15 19 18 14 17 18 23 22 23 24 16 19 34 28 30 33 38 29 23 30 31 25 25 23 22 19 16 18 17
32 31 31 31 33 32 32 33 36 36 40 38 35 40 26 14 23 20 20 24 24 24 25 22 23 26 22 25 31 34 35 38 39 35 36 35 29 28 24 25 26 26 26 23 22
32 30 30 30 32 30 32 33 34 34 41 42 42 42 39 33 38 35 21 23 17 26 22 23 35 29 27 29 32 36 40 42 40 36 34 38 39 38 34 33 32 28 26 22 19
31 30 29 30 33 33 30 31 33 34 37 46 43 44 38 30 36 34 26 30 29 28 27 32 36 30 32 34 36 37 38 40 43 39 38 37 38 34 32 34 35 29 24 21 26
30 30 30 32 35 32 31 30 31 24 18 43 26 29 19 19 30 19 28 30 36 41 37 37 33 34 38 37 37 36 30 34 37 33 30 32 25 35 32 34 26 38 28 28 28
32 31 31 32 34 32 30 24 20 10 5 11 10 22 10 16 10 3 5 23 32 35 33 47 35 33 34 33 31 36 34 30 28 24 28 34 30 28 32 34 23 24 28 28 33
31 30 29 31 33 33 29 22 10 9 12 11 13 12 19 18 19 17 9 13 18 24 27 34 31 32 28 27 24 23 22 28 29 28 22 40 31 34 36 33 28 29 25 23 26
32 29 30 28 31 31 27 12 13 16 11 20 24 18 16 18 19 19 18 18 17 18 25 26 32 31 28 24 20 18 18 10 5 10 15 28 27 34 6 3 34 33 17 17 19
31 29 29 27 29 30 24 24 15 30 36 13 11 20 24 19 21 20 18 21 18 19 23 20 17 22 24 25 20 14 14 11 6 7 15 18 13 8 7 18 28 21 13 12 12
30 30 31 28 29 29 26 34 36 38 25 27 27 27 28 24 22 20 19 22 19 18 23 13 12 11 13 20 17 17 24 22 17 22 18 19 11 8 14 14 12 11 6 6 7
30 30 30 28 27 25 31 38 43 33 29 24 29 24 28 26 27 25 21 14 16 21 22 22 19 18 13 11 15 15 6 6 8 4 10 17 19 5 6 5 3 3 6 12 15
30 29 33 30 31 39 39 47 46 34 26 23 28 29 28 25 26 17 17 16 12 14 15 15 14 10 9 13 17 17 21 14 9 8 4 6 6 10 6 9 5 9 12 18 21
32 37 37 34 43 42 48 46 39 31 30 26 22 26 27 24 22 20 17 14 14 12 13 20 7 10 15 10 10 18 18 19 22 15 17 18 18 11 8 6 8 13 18 23 24
34 39 40 43 47 48 48 48 50 36 27 29 29 24 22 21 12 17 14 19 17 17 10 18 11 10 11 14 13 14 17 18 18 19 22 12 10 5 5 7 5 11 7 15 32
38 35 40 44 48 48 48 49 46 43 35 27 26 22 21 20 22 15 15 14 19 15 15 10 9 11 8 2 6 10 15 19 22 21 23 22 24 21 8 5 16 16 22 26 34
42 35 42 35 52 48 42 42 37 28 41 33 23 20 22 17 16 15 17 11 18 20 21 14 13 13 19 20 15 16 15 14 19 24 24 24 21 20 19 19 16 20 24 33 35
41 43 39 41 33 40 37 35 32 30 25 25 22 21 20 15 19 16 17 19 22 22 23 14 11 12 16 15 15 19 20 21 23 23 25 24 26 21 23 23 22 27 31 29 31
40 39 27 34 41 38 49 32 28 29 24 25 20 16 21 18 12 12 14 12 6 11 13 14 9 7 12 11 13 13 19 22 23 22 24 26 22 19 20 23 25 33 30 26 23
Wind_Direction
274 277 279 282 284 286 288 290 292 293 294 294 295 299 297 299 300 308 303 306 310 308 302 298 293 285 281 277 272 244 250 254 260 266 277 280 310 291 274 256 242 268 257 225 236
272 274 276 279 283 285 287 289 291 291 291 290 291 292 294 297 301 300 300 297 306 310 308 306 302 294 285 275 263 233 238 253 267 271 283 287 273 267 273 272 284 286 262 272 267
271 272 275 279 282 284 285 286 286 287 289 288 289 290 294 298 305 297 296 299 298 297 299 299 293 291 285 266 251 246 251 262 261 262 269 281 279 271 272 267 263 273 266 249 256
275 277 277 277 281 282 283 283 284 286 287 288 290 289 292 294 289 285 295 302 297 297 290 288 288 280 275 266 266 260 260 263 266 269 276 272 265 270 267 271 267 255 251 250 252
273 274 275 276 277 279 281 282 282 282 285 287 291 291 289 288 294 285 298 298 300 295 292 290 280 276 270 271 270 263 268 268 270 265 265 267 267 272 267 269 265 262 260 258 255
272 270 272 274 275 276 277 279 281 282 283 285 288 287 288 286 299 295 293 299 296 290 284 279 276 263 270 269 264 266 264 267 268 269 269 267 266 267 269 274 272 268 263 264 264
271 272 273 273 274 277 277 277 280 282 283 285 285 289 287 286 287 287 293 293 290 287 285 281 275 268 274 275 283 277 272 273 267 269 270 271 267 259 272 282 265 258 269 270 269
271 272 271 273 272 272 275 279 280 282 283 284 286 288 285 293 298 292 284 283 279 274 276 275 267 264 265 269 270 272 273 276 275 274 277 259 263 269 260 269 258 252 253 259 257
271 271 273 274 273 272 274 276 278 279 281 283 283 286 295 295 298 294 290 285 269 277 278 276 266 274 268 263 272 264 267 271 282 269 265 243 264 271 257 252 250 232 242 248 251
268 269 270 271 273 273 276 277 275 276 280 279 285 287 293 298 317 296 295 271 267 281 277 268 271 270 260 246 257 268 270 274 278 281 275 258 258 260 262 262 257 250 240 234 244
269 270 271 271 270 273 275 273 274 283 277 281 282 282 273 290 295 287 274 269 265 267 262 259 260 249 256 259 267 272 272 274 276 278 285 280 273 265 264 261 258 255 259 247 233
268 269 269 269 270 269 268 272 279 277 285 288 283 278 281 277 262 258 259 263 247 248 249 246 247 258 265 268 270 270 273 276 277 278 275 273 269 265 267 263 259 252 243 240 226
267 265 264 265 265 265 270 272 274 275 279 282 281 283 286 274 272 272 238 249 249 251 247 249 257 267 266 267 267 267 270 276 276 278 276 276 272 263 264 259 249 241 236 224 203
264 263 262 260 262 267 266 272 272 282 277 286 279 287 274 244 264 290 246 243 246 251 252 254 262 266 267 266 265 265 270 282 285 284 286 270 275 267 266 278 247 232 219 201 200
259 258 258 259 265 265 268 270 276 256 260 281 257 239 247 229 275 9 277 225 247 251 248 253 259 261 259 262 264 273 274 276 281 289 277 275 276 264 266 267 210 188 185 198 209
256 255 255 258 262 263 264 262 205 200 236 255 257 247 257 251 246 250 235 245 248 253 247 255 260 256 264 263 265 275 283 268 268 260 263 258 261 269 263 273 236 164 185 197 214
252 253 257 257 259 263 261 227 193 214 232 256 248 252 256 257 258 247 249 244 246 237 246 257 258 254 248 254 262 271 275 284 273 245 254 265 257 256 330 303 165 173 158 185 216
250 252 254 252 252 254 234 208 210 232 228 236 253 250 251 260 255 251 256 252 252 245 265 271 282 253 238 237 250 258 260 219 265 261 271 294 281 218 180 161 148 141 141 193 231
248 247 250 252 248 244 221 205 218 230 241 240 249 247 252 256 247 257 250 252 254 248 239 253 252 262 249 236 229 255 244 251 263 279 280 259 238 93 115 109 153 144 185 255 272
247 250 249 250 243 227 224 223 232 241 242 244 256 249 245 251 254 246 243 252 259 247 247 241 268 267 239 230 223 223 249 234 221 252 250 254 261 70 233 150 108 251 265 276 279
239 230 244 237 223 218 214 225 236 228 237 249 246 247 244 256 266 250 235 256 253 248 222 231 240 264 212 219 223 225 237 231 247 258 303 309 299 339 298 266 253 270 286 290 284
232 225 225 213 216 216 222 225 232 238 231 240 239 238 239 254 265 255 251 248 227 209 211 220 227 244 214 221 228 230 245 241 243 254 259 275 285 279 268 254 267 310 297 289 292
221 219 225 222 211 223 224 229 231 231 228 228 223 231 241 248 244 240 221 242 239 214 205 223 229 257 251 257 248 239 235 243 250 256 262 264 269 244 240 278 342 349 280 308 299
217 216 219 227 222 224 227 230 230 239 236 214 226 226 225 227 225 238 219 240 233 200 217 216 222 215 247 249 249 247 245 242 240 244 255 256 266 263 242 289 294 279 286 292 295
220 221 224 226 223 222 225 226 224 236 232 210 224 215 214 203 204 212 204 216 224 220 214 200 237 251 255 268 269 266 258 249 251 247 251 261 264 269 286 298 302 290 286 290 299
218 221 232 226 229 229 221 221 220 208 206 205 216 199 199 201 212 218 225 220 234 229 222 226 246 258 265 265 273 271 264 259 259 259 260 264 269 270 282 287 285 286 285 293 303
221 224 230 237 228 226 222 220 212 201 195 204 207 200 207 214 219 215 216 205 192 201 206 209 221 256 280 276 280 276 265 257 262 263 267 267 272 254 255 262 276 283 288 296 294
Height
3128 3128 3128 3128 3127 3127 3127 3126 3126 3125 3124 3125 3124 3122 3121 3120 3119 3119 3117 3118 3117 3116 3116 3114 3115 3115 3116 3116 3118 3119 3120 3118 3118 3121 3120 3118 3117 3116 3115 3113 3115 3116 3116 3117 3114
3122 3122 3122 3122 3122 3122 3122 3121 3120 3120 3119 3120 3119 3118 3116 3114 3115 3115 3118 3113 3113 3113 3113 3112 3111 3110 3111 3112 3112 3113 3112 3112 3116 3117 3117 3114 3113 3113 3112 3112 3111 3112 3112 3111 3111
3117 3117 3116 3116 3115 3115 3115 3115 3114 3113 3113 3113 3113 3113 3111 3109 3111 3107 3111 3111 3110 3109 3109 3108 3109 3109 3108 3110 3111 3110 3104 3108 3109 3110 3109 3108 3107 3107 3107 3105 3107 3107 3107 3106 3105
3111 3111 3110 3109 3109 3108 3108 3108 3107 3107 3106 3107 3108 3106 3106 3106 3113 3102 3106 3108 3106 3106 3105 3104 3105 3104 3105 3107 3110 3107 3106 3104 3103 3104 3103 3101 3100 3100 3101 3101 3101 3100 3099 3097 3097
3104 3104 3104 3103 3102 3102 3101 3101 3100 3101 3099 3099 3100 3100 3100 3098 3103 3096 3100 3102 3101 3101 3101 3100 3101 3102 3102 3103 3104 3103 3103 3102 3100 3097 3094 3093 3090 3089 3090 3093 3094 3093 3091 3089 3088
3097 3097 3097 3097 3096 3095 3095 3094 3094 3094 3093 3092 3092 3092 3092 3090 3098 3092 3094 3093 3097 3094 3097 3097 3096 3098 3098 3096 3097 3096 3094 3093 3094 3093 3089 3088 3083 3082 3083 3085 3086 3085 3084 3083 3082
3090 3090 3091 3090 3090 3089 3088 3088 3088 3087 3086 3085 3085 3084 3083 3083 3091 3089 3086 3091 3089 3090 3090 3093 3092 3092 3092 3091 3092 3089 3086 3084 3084 3085 3081 3084 3073 3073 3075 3075 3077 3081 3082 3081 3079
3082 3083 3084 3084 3084 3082 3080 3082 3081 3080 3079 3079 3079 3077 3070 3078 3077 3081 3082 3081 3082 3083 3084 3086 3086 3084 3085 3087 3084 3085 3083 3077 3075 3078 3076 3078 3060 3073 3073 3072 3071 3073 3076 3078 3078
3075 3076 3077 3077 3078 3075 3075 3075 3074 3073 3073 3073 3073 3072 3068 3066 3071 3071 3074 3076 3077 3078 3079 3079 3080 3080 3081 3082 3080 3080 3073 3074 3067 3073 3071 3067 3064 3070 3069 3069 3066 3068 3070 3072 3076
3069 3070 3070 3071 3071 3069 3070 3070 3067 3066 3067 3068 3070 3069 3067 3067 3066 3063 3068 3071 3073 3072 3073 3075 3076 3073 3076 3080 3073 3074 3071 3066 3063 3067 3067 3063 3059 3063 3065 3066 3063 3064 3065 3067 3071
3062 3063 3063 3064 3063 3065 3066 3062 3064 3064 3060 3064 3065 3060 3065 3064 3063 3064 3064 3065 3068 3069 3068 3070 3070 3066 3072 3075 3073 3070 3067 3063 3060 3061 3060 3056 3055 3056 3058 3059 3059 3058 3059 3061 3065
3054 3056 3056 3057 3056 3058 3057 3057 3061 3059 3052 3052 3051 3051 3052 3059 3054 3058 3065 3061 3061 3060 3066 3068 3057 3064 3067 3068 3068 3065 3060 3056 3057 3058 3057 3052 3047 3047 3051 3050 3051 3052 3052 3053 3058
3048 3048 3049 3050 3049 3049 3052 3055 3054 3055 3051 3041 3042 3039 3044 3046 3042 3045 3055 3056 3055 3054 3058 3058 3054 3059 3060 3059 3060 3057 3056 3054 3052 3051 3049 3046 3040 3040 3042 3041 3041 3043 3046 3046 3048
3041 3042 3043 3042 3044 3045 3046 3049 3049 3051 3053 3032 3036 3031 3030 3039 3037 3037 3040 3047 3048 3047 3051 3048 3052 3052 3052 3050 3052 3048 3051 3049 3047 3045 3042 3045 3030 3033 3032 3027 3025 3032 3036 3033 3035
3033 3034 3036 3036 3036 3038 3041 3043 3046 3052 3054 3035 3034 3031 3031 3036 3039 3037 3033 3039 3037 3037 3048 3036 3045 3046 3044 3044 3046 3042 3045 3044 3042 3041 3042 3039 3033 3027 3026 3021 3020 3022 3020 3023 3024
3025 3025 3027 3028 3029 3031 3034 3037 3044 3052 3037 3028 3028 3027 3033 3032 3032 3032 3035 3033 3034 3034 3035 3035 3039 3040 3038 3038 3040 3040 3037 3037 3038 3039 3037 3026 3031 3026 3021 3016 3015 3007 3017 3018 3020
3015 3017 3019 3020 3022 3023 3027 3032 3040 3037 3028 3023 3025 3024 3025 3030 3031 3030 3030 3030 3030 3031 3028 3030 3029 3031 3033 3035 3036 3036 3036 3036 3036 3034 3023 3026 3024 3017 3018 3011 3005 3012 3018 3016 3021
3005 3007 3009 3012 3012 3015 3019 3026 3024 3012 3017 3019 3021 3022 3021 3025 3026 3027 3026 3025 3024 3025 3026 3026 3025 3026 3027 3028 3031 3032 3034 3037 3031 3027 3022 3022 3016 3013 3016 3011 3010 3010 3015 3017 3018
2994 2996 2998 3002 3003 3006 3012 3012 3005 3003 3011 3015 3017 3017 3017 3020 3021 3021 3020 3019 3019 3021 3024 3025 3023 3023 3023 3024 3028 3027 3028 3031 3030 3028 3026 3019 3015 3009 3009 3013 3012 3012 3013 3014 3016
2985 2987 2989 2991 2996 3001 3001 2998 2996 3000 3007 3009 3008 3013 3013 3015 3015 3013 3015 3014 3012 3016 3019 3020 3020 3019 3022 3021 3022 3023 3027 3028 3028 3025 3015 3008 3005 3011 3012 3012 3014 3014 3014 3014 3014
2977 2979 2977 2985 2990 2989 2987 2987 2989 2995 3002 3004 3004 3007 3008 3009 3009 3006 3009 3010 3007 3012 3013 3017 3019 3018 3018 3017 3018 3022 3022 3023 3024 3024 3020 3011 3008 3009 3013 3012 3012 3013 3013 3012 3011
2965 2969 2972 2976 2979 2977 2978 2980 2985 2988 2994 2996 2999 3001 3004 3005 3005 3003 3004 3004 3003 3007 3010 3011 3014 3013 3012 3015 3015 3014 3016 3018 3018 3019 3019 3017 3015 3012 3012 3014 3014 3012 3009 3007 3007
2955 2960 2963 2966 2963 2967 2971 2974 2976 2982 2986 2990 2993 2996 2998 3000 3000 3001 3000 2998 3001 3005 3007 3007 3009 3012 3011 3013 3010 3010 3013 3014 3016 3017 3016 3017 3015 3012 3013 3013 3012 3010 3004 3003 3000
2950 2952 2953 2955 2955 2961 2963 2966 2970 2974 2979 2984 2988 2991 2992 2992 2993 2994 2996 2995 2999 3003 3002 3005 3006 3007 3008 3009 3010 3008 3008 3009 3011 3012 3010 3011 3012 3015 3013 3013 3011 3005 3001 3001 2998
2939 2940 2942 2942 2946 2950 2957 2961 2964 2966 2971 2977 2979 2979 2985 2985 2987 2988 2993 2993 2996 2997 3000 3002 3003 3005 3005 3005 3005 3004 3004 3005 3005 3005 3006 3007 3008 3008 3009 3004 3002 2997 2998 2995 2995
2930 2934 2936 2938 2943 2947 2951 2952 2956 2962 2968 2969 2973 2975 2977 2978 2982 2985 2988 2990 2990 2993 2996 2999 3000 3000 3000 3001 3000 2999 2999 2999 3000 3001 3001 3002 3002 3004 3003 2997 2995 2993 2993 2992 2990
2922 2927 2928 2932 2936 2941 2940 2947 2951 2958 2961 2965 2969 2968 2970 2977 2979 2981 2983 2987 2989 2989 2992 2996 2997 2999 2997 2997 2996 2995 2993 2993 2994 2996 2997 2997 2998 2992 2992 2990 2991 2989 2988 2987 2986